Tracking 31027 objects as of 19-Jul-2025
HD Live streaming from Space Station
objects crossing your sky now

INTELSAT 602

Track INTELSAT 602 now!
INTELSAT 602 is classified as:


NORAD ID: 20315
Int'l Code: 1989-087A
Perigee: 36,125.0 km
Apogee: 36,177.7 km
Inclination: 14.1 °
Period: 1,454.4 minutes
Semi major axis: 42522 km
RCS: 19.9526 m2 (large)
Launch date: October 27, 1989
Source: International Telecommunications Satellite Organization (ITSO)
Launch site: FRENCH GUIANA (FRGUI)

Inclined orbit; Indian Ocean region; C-band and Ku-band broadcasting.
Your satellite tracking list
IRIDIUM 106
Track 1 satellite(s)




NASA's NSSDC Master Catalog

Two Line Element Set (TLE):
1 20315U 89087A   25199.16455373 -.00000173  00000-0  00000-0 0  9995
2 20315  14.1341   9.9429 0006199 195.5735 331.7638  0.99009468128018
Source of the keplerian elements: AFSPC